Tracking 19242 objects as of 19-Sep-2018
HD Live streaming from Space Station
objects crossing your sky now

FENGYUN 1C DEB

Track FENGYUN 1C DEB now!
10-day predictions


NORAD ID: 31073
Int'l Code: 1999-025BFT
Perigee: 824.9 km
Apogee: 907.1 km
Inclination: 99.1 °
Period: 102.1 minutes
Semi major axis: 7236 km
RCS: 0.0164 m2 (small)
Launch date: May 10, 1999
Source: People's Republic of China (PRC)
Launch site: Taiyaun Space Center, China (TSC)

Note: This is SATELLITE DEBRIS
aabbcc
Your satellite tracking list
Your tracking list is empty




NASA's NSSDC Master Catalog

Two Line Element Set (TLE):
1 31073U 99025BFT 18262.21397283  .00000845  00000-0  49588-3 0  9997
2 31073  99.0640   5.2926 0056778 160.7816 199.5513 14.10154979597937
Source of the keplerian elements: AFSPC